Wind_Speed
7 6 5 4 16 18 12 29 37 11 12 5 12 14 6 5 11 15 9 10 10 11 11 10 8 9 10 12 11 12 11 10 8 8 7 5 4 4 4 6 6 7 7 7 8 9 11 12 14
9 8 7 6 16 22 28 31 41 18 6 8 13 17 11 14 13 17 9 15 13 16 15 14 13 12 13 15 14 13 12 10 9 8 5 5 4 5 6 7 7 7 8 9 11 12 12 13 15
11 12 11 9 10 20 21 18 21 26 14 7 18 20 22 21 20 21 11 17 14 17 19 16 15 15 15 16 15 13 11 9 7 6 5 6 7 7 8 9 10 10 11 13 14 14 15 16 16
14 14 15 12 8 18 13 17 24 24 20 16 24 26 17 22 19 22 15 15 17 16 16 18 18 17 16 16 15 14 9 9 8 7 7 8 8 9 9 11 12 13 15 15 15 15 15 17 19
16 17 19 12 15 14 17 19 18 9 18 24 27 20 14 21 23 21 14 14 19 17 16 17 19 19 17 15 15 14 10 9 8 8 9 9 9 10 10 11 13 14 15 16 14 15 17 19 21
16 21 23 12 13 11 9 19 20 17 20 28 31 18 20 21 14 21 14 4 20 16 16 17 18 17 13 13 14 12 11 9 9 9 9 10 11 12 13 13 13 16 18 16 17 18 20 22 24
16 25 23 12 6 7 2 7 20 23 26 24 24 22 20 14 14 19 19 0 11 14 14 16 16 12 10 10 10 11 11 10 10 9 11 11 14 15 17 17 19 21 21 20 20 22 24 24 25
16 22 19 12 6 11 3 13 10 11 18 34 24 22 18 10 11 14 17 10 1 9 11 14 13 9 7 7 9 10 10 10 11 11 12 15 16 18 20 19 21 21 17 18 22 25 26 27 30
11 13 16 13 10 13 8 5 13 21 22 23 23 26 16 11 13 11 16 11 5 7 7 9 8 6 5 6 8 9 11 12 13 15 16 16 16 16 20 20 17 18 22 23 26 28 30 30 33
5 10 20 16 13 5 7 4 6 16 24 23 25 32 26 16 9 10 13 16 11 3 8 4 5 4 6 6 8 11 12 14 16 15 15 13 14 16 19 19 21 24 25 28 32 34 36 37 36
6 20 24 19 14 8 5 13 14 11 20 20 27 25 20 24 15 13 13 13 12 4 3 6 3 4 7 7 10 11 13 12 12 13 13 13 12 16 18 20 23 27 30 33 37 36 38 39 38
9 18 28 21 15 17 16 13 17 18 23 24 30 17 19 22 17 13 11 9 11 7 1 2 3 5 7 10 10 10 9 10 12 10 12 16 18 19 22 25 28 29 32 33 35 37 39 39 38
7 10 20 23 22 19 20 23 20 19 21 19 29 16 23 23 19 11 10 12 11 15 10 6 5 5 7 9 11 12 12 10 10 12 13 15 22 25 29 33 34 35 34 35 36 37 38 40 39
7 4 5 9 13 17 23 21 20 7 6 18 27 27 19 17 18 19 15 8 10 12 15 16 15 16 15 15 10 8 6 6 6 12 18 23 25 28 31 34 36 37 37 40 41 41 41 40 40
7 3 6 8 11 11 13 15 13 8 15 15 26 22 25 15 17 20 19 11 6 9 10 13 15 16 17 17 16 16 16 15 19 17 22 27 29 31 36 36 32 33 37 42 43 43 42 41 38
2 4 7 8 15 6 17 4 8 8 10 20 21 25 23 20 20 15 17 19 13 9 10 11 13 15 16 16 16 16 18 21 21 25 26 29 30 34 39 39 39 39 40 43 42 43 41 39 39
7 7 6 16 16 14 19 8 7 11 15 23 15 19 16 26 26 21 19 16 15 12 13 14 13 16 14 15 16 17 20 24 27 26 28 31 33 37 40 42 44 47 44 45 44 44 43 41 43
18 16 3 7 5 13 17 19 7 8 14 7 16 13 20 25 30 32 26 22 15 18 17 20 18 18 15 16 19 21 22 24 27 28 31 34 36 39 45 46 47 47 43 46 46 48 45 43 44
19 15 14 17 17 15 16 22 20 15 19 19 22 17 22 26 28 31 29 28 16 14 17 20 23 21 19 19 22 23 23 22 25 30 35 37 39 42 47 48 48 48 48 50 50 49 43 43 46
21 24 17 20 25 27 27 27 14 9 5 13 22 27 28 28 25 30 33 33 24 16 17 19 22 25 22 22 25 26 24 28 29 33 37 38 41 45 48 50 49 50 51 50 50 48 45 46 49
20 19 16 17 27 29 29 21 13 5 9 19 18 14 21 21 26 31 35 38 38 21 16 18 18 23 26 28 30 26 30 32 33 36 37 39 43 47 50 52 51 52 52 50 50 50 50 50 53
16 18 18 19 22 24 20 23 12 3 6 12 16 16 8 20 26 27 36 31 25 19 19 18 16 18 23 25 25 28 32 35 36 39 37 39 44 47 51 53 52 53 49 49 51 51 51 49 53
15 18 17 19 18 16 12 19 5 11 1 11 11 14 14 25 20 15 20 21 18 19 22 25 26 27 28 32 33 33 37 38 42 41 40 40 44 48 50 52 51 51 52 54 54 52 50 53 55
14 16 14 15 13 3 11 19 11 8 0 12 22 23 22 21 19 25 26 23 23 24 29 31 32 33 34 35 37 36 39 42 43 44 38 38 44 47 52 50 48 52 55 57 58 54 52 54 55
14 14 13 13 11 9 7 15 18 7 8 18 24 19 27 17 27 29 25 30 27 30 32 36 37 38 36 37 38 38 40 43 42 33 34 41 45 50 49 49 51 53 56 56 52 50 53 54 55
10 14 12 12 10 15 11 4 6 6 9 18 14 23 25 29 39 43 43 44 40 27 30 35 39 41 42 42 38 39 41 38 33 33 39 43 48 51 50 53 49 52 55 54 52 53 53 54 54
13 12 12 15 12 12 8 14 8 14 20 20 26 21 24 27 36 37 40 35 29 32 25 29 33 35 37 38 37 37 33 32 34 37 41 46 47 49 42 42 49 53 54 52 51 53 54 54 52
15 12 11 10 12 12 6 14 16 18 19 16 20 27 22 20 24 26 31 34 27 27 26 27 27 27 28 28 27 29 30 31 35 39 40 40 40 38 47 46 49 53 53 52 51 52 54 53 54
12 12 9 13 13 23 19 14 14 16 18 23 28 21 15 17 23 34 37 35 35 32 29 27 24 25 25 27 28 29 29 32 37 38 36 38 38 41 46 50 53 53 55 52 52 53 53 54 55
19 14 13 20 22 22 23 19 19 25 16 18 18 23 21 24 27 40 44 46 43 33 32 32 27 25 25 25 26 29 32 37 37 37 38 38 40 42 48 53 54 55 54 52 54 54 56 56 55
Wind_Direction
204 186 146 83 360 351 351 336 345 341 94 58 294 294 322 327 312 301 329 305 302 303 307 304 305 309 298 302 298 293 278 267 248 238 229 229 255 287 321 329 330 334 336 325 315 313 310 309 306
200 180 150 81 24 350 3 347 333 360 349 335 303 295 285 286 296 287 317 291 291 291 291 293 288 286 286 285 276 270 264 253 238 236 237 252 268 298 313 319 325 327 319 314 311 307 304 298 295
198 175 161 124 39 22 16 350 350 335 10 66 308 313 304 288 274 274 287 294 302 296 290 287 285 283 280 279 279 275 264 251 249 245 246 266 284 298 317 325 327 321 317 313 308 303 303 301 300
195 170 157 137 105 25 7 327 331 342 16 351 307 298 307 298 291 276 261 283 290 291 289 286 281 278 276 279 281 274 264 253 250 251 256 277 302 316 321 324 318 317 315 306 303 301 304 305 308
193 165 166 163 86 70 314 303 331 313 304 300 304 284 307 314 311 296 283 275 277 272 280 289 284 272 268 275 272 269 259 261 263 265 276 297 310 311 317 315 315 316 312 306 304 305 306 304 305
190 173 173 179 121 89 323 292 303 301 302 300 295 318 317 311 314 321 322 305 268 264 272 285 281 269 265 271 274 269 264 266 266 271 289 301 302 306 300 298 302 319 317 307 301 302 304 305 305
197 176 181 156 97 168 299 311 297 298 298 292 302 311 325 304 316 309 298 234 257 256 267 277 270 266 265 268 266 262 266 267 273 284 291 296 297 299 298 297 303 309 311 305 303 303 302 304 303
211 188 185 150 84 7 65 335 292 330 303 309 296 292 314 4 310 321 330 7 250 270 270 272 267 266 268 272 269 269 269 274 281 285 288 291 304 306 302 303 307 313 313 311 306 302 307 306 302
218 225 176 146 83 347 65 98 319 320 314 302 293 294 293 30 1 347 335 7 347 309 286 280 271 269 278 282 281 279 276 280 286 291 297 308 308 308 312 315 315 315 315 312 304 305 305 303 299
191 180 186 144 111 40 303 10 215 303 303 314 314 312 327 335 18 352 354 341 356 323 282 254 260 269 272 283 281 286 296 303 303 305 308 308 312 315 314 320 314 314 316 314 313 313 310 302 296
172 169 193 173 154 162 235 248 230 277 287 290 292 317 331 330 357 9 358 345 342 338 233 286 272 272 285 298 299 304 304 310 314 314 308 310 317 313 319 316 313 315 317 320 318 315 315 313 304
170 186 197 212 207 208 217 236 251 247 270 282 286 313 332 327 328 353 353 2 351 355 211 175 282 308 319 321 323 311 315 323 321 323 327 326 327 328 324 327 323 319 315 314 315 313 319 319 315
214 178 202 221 236 249 237 235 228 233 260 283 299 325 322 313 325 342 359 353 349 350 359 356 352 359 344 344 342 342 337 341 335 326 322 326 326 327 329 331 327 323 321 321 321 322 320 319 318
272 283 244 237 252 267 273 260 240 193 238 295 290 308 327 326 336 335 330 341 342 345 343 345 348 346 347 348 345 338 329 308 306 314 321 326 332 332 331 331 328 327 332 334 333 329 324 321 318
315 329 327 327 295 271 288 291 225 209 237 252 281 282 304 333 324 334 337 337 4 325 329 335 339 342 345 348 342 342 335 337 336 336 336 333 335 333 329 334 332 327 328 329 329 329 326 322 321
319 349 15 357 9 3 340 302 242 210 230 212 259 266 297 313 306 310 315 328 324 328 317 323 321 325 332 337 342 341 338 338 341 339 339 333 336 332 331 333 328 326 326 328 329 329 325 321 318
222 223 36 9 347 322 320 341 319 214 235 238 250 283 306 298 299 300 305 316 311 300 302 313 315 322 332 332 334 334 335 332 330 332 331 326 329 332 328 331 328 323 319 324 326 325 323 317 317
235 251 232 279 323 329 320 316 308 226 274 251 266 273 291 299 293 304 299 303 304 295 286 298 304 311 319 324 329 331 330 328 323 326 325 326 329 329 327 328 325 324 322 323 324 324 319 315 315
241 241 218 196 203 213 228 250 282 287 255 241 236 227 269 283 292 301 298 299 315 286 281 282 298 305 309 310 317 325 321 324 326 327 324 324 325 327 325 325 325 323 320 321 322 323 318 315 316
226 251 248 221 216 224 238 262 297 300 357 332 269 246 237 247 268 283 285 289 303 281 268 278 290 296 300 306 308 315 313 316 326 328 319 318 321 322 322 321 323 323 321 322 321 320 318 316 315
267 266 261 253 241 253 269 278 255 208 347 324 335 294 247 226 248 262 270 278 285 286 290 287 291 285 295 301 299 304 311 313 318 319 314 312 316 317 319 321 322 322 323 323 321 320 317 318 318
272 275 261 246 251 265 274 288 287 255 336 301 310 342 292 255 255 265 266 273 273 281 291 293 301 302 305 306 303 303 306 305 311 312 308 305 310 314 317 318 319 320 321 320 320 320 319 319 316
285 279 279 276 292 297 323 311 297 236 52 291 307 302 266 265 241 275 292 285 282 291 285 283 289 297 299 302 303 303 305 304 310 310 306 305 308 310 313 314 316 317 315 317 320 317 318 317 317
291 293 286 281 286 351 17 341 27 197 311 301 252 244 267 251 268 278 287 299 274 281 281 283 284 287 290 292 294 296 298 302 305 305 301 300 303 306 312 312 316 314 315 317 318 318 315 316 318
296 293 298 289 257 211 301 297 328 72 319 286 272 271 260 294 279 271 273 289 279 261 262 266 271 277 281 286 287 290 293 297 300 298 295 301 302 308 312 309 311 306 315 318 317 316 317 318 320
305 299 308 308 283 274 247 208 260 202 232 255 262 273 284 284 289 291 296 297 295 276 270 271 272 274 277 282 280 284 289 295 297 297 300 306 308 309 305 304 305 311 315 319 317 317 318 319 320
290 302 290 287 299 309 250 223 258 285 223 221 247 264 268 261 252 259 276 280 292 296 290 287 283 281 277 277 280 283 288 296 299 296 309 307 312 312 315 309 310 314 320 318 317 318 319 319 319
292 280 288 292 283 278 204 231 257 275 268 235 224 224 213 242 264 283 294 301 290 286 287 288 288 287 285 282 282 286 293 296 298 303 307 307 308 310 314 312 315 319 320 318 319 320 318 319 321
297 288 282 296 287 280 281 247 267 273 269 249 224 251 226 270 263 285 290 287 287 298 294 289 296 291 289 282 282 287 291 296 298 301 306 309 307 308 311 314 317 320 319 319 320 321 320 322 321
282 272 262 269 279 275 263 264 232 270 314 256 305 276 276 271 288 303 298 289 291 291 291 291 291 292 291 286 286 286 291 297 300 300 305 304 307 309 311 311 319 319 319 320 323 323 322 323 322
Height
5929 5929 5930 5931 5933 5928 5929 5924 5924 5922 5923 5924 5926 5925 5930 5926 5924 5922 5924 5920 5921 5920 5920 5920 5919 5919 5919 5918 5917 5917 5916 5915 5914 5913 5913 5913 5914 5914 5913 5913 5914 5913 5911 5910 5909 5908 5907 5906 5905
5927 5928 5930 5930 5933 5926 5925 5923 5923 5927 5927 5925 5922 5922 5926 5925 5922 5917 5925 5919 5920 5919 5919 5919 5918 5918 5917 5917 5916 5915 5914 5914 5914 5914 5913 5913 5913 5913 5913 5913 5912 5911 5910 5909 5908 5907 5906 5905 5903
5925 5927 5928 5929 5927 5923 5924 5929 5929 5925 5926 5919 5923 5922 5919 5920 5919 5914 5922 5917 5918 5916 5917 5916 5916 5915 5915 5915 5915 5914 5913 5914 5913 5914 5913 5913 5913 5913 5913 5912 5911 5910 5908 5908 5906 5905 5904 5903 5901
5922 5925 5927 5928 5927 5925 5927 5932 5930 5927 5918 5922 5919 5919 5918 5911 5912 5912 5918 5917 5915 5914 5914 5914 5913 5912 5912 5913 5913 5912 5912 5912 5912 5912 5912 5913 5913 5912 5911 5910 5909 5908 5906 5905 5904 5902 5901 5900 5898
5920 5923 5924 5926 5924 5928 5930 5931 5933 5928 5927 5920 5917 5916 5918 5914 5911 5907 5914 5916 5911 5911 5912 5911 5910 5910 5910 5911 5910 5911 5911 5911 5911 5912 5912 5912 5911 5911 5910 5909 5907 5905 5903 5902 5901 5900 5899 5897 5894
5917 5920 5921 5922 5921 5927 5928 5930 5933 5928 5927 5918 5916 5915 5916 5916 5912 5905 5909 5915 5904 5909 5909 5909 5908 5908 5908 5908 5909 5910 5910 5910 5910 5910 5910 5910 5910 5909 5908 5906 5904 5903 5901 5900 5899 5897 5894 5893 5890
5915 5917 5920 5920 5920 5921 5925 5928 5929 5928 5922 5917 5909 5911 5915 5914 5913 5908 5901 5911 5907 5905 5907 5907 5907 5906 5907 5907 5908 5909 5909 5909 5909 5908 5909 5909 5908 5906 5905 5903 5901 5899 5898 5896 5895 5892 5890 5887 5885
5913 5915 5918 5917 5919 5922 5923 5928 5926 5927 5918 5913 5911 5911 5915 5910 5911 5906 5902 5905 5908 5904 5905 5906 5906 5906 5906 5907 5907 5908 5908 5908 5908 5907 5906 5906 5905 5904 5902 5901 5898 5896 5894 5893 5891 5888 5886 5883 5880
5912 5915 5917 5915 5917 5921 5923 5926 5928 5924 5921 5916 5914 5911 5910 5905 5905 5906 5899 5905 5905 5901 5903 5904 5905 5905 5906 5906 5906 5907 5907 5907 5906 5905 5905 5904 5903 5901 5898 5897 5896 5893 5891 5889 5886 5884 5880 5878 5874
5911 5912 5917 5914 5916 5918 5923 5925 5925 5924 5920 5918 5915 5907 5911 5907 5903 5903 5903 5897 5903 5903 5902 5904 5904 5904 5904 5905 5905 5906 5906 5905 5904 5903 5902 5901 5900 5898 5896 5893 5892 5889 5887 5884 5882 5879 5874 5871 5868
5910 5912 5915 5912 5912 5915 5918 5919 5920 5922 5918 5916 5914 5912 5907 5904 5902 5902 5903 5902 5902 5905 5904 5901 5902 5903 5903 5904 5904 5904 5904 5903 5901 5899 5899 5898 5897 5896 5894 5892 5890 5888 5884 5881 5876 5873 5868 5863 5860
5909 5910 5911 5912 5910 5911 5914 5915 5916 5917 5914 5911 5909 5913 5910 5906 5903 5901 5903 5902 5900 5903 5904 5903 5902 5903 5903 5903 5902 5902 5902 5900 5899 5898 5895 5894 5894 5894 5892 5891 5887 5885 5881 5877 5873 5868 5863 5858 5853
5905 5908 5909 5910 5909 5908 5909 5910 5911 5911 5911 5909 5905 5909 5909 5906 5903 5902 5902 5901 5900 5898 5901 5902 5903 5904 5904 5903 5901 5900 5898 5898 5896 5896 5896 5896 5892 5888 5885 5881 5880 5878 5875 5871 5866 5861 5855 5849 5844
5904 5905 5907 5908 5908 5907 5906 5906 5908 5909 5911 5908 5903 5901 5905 5905 5901 5900 5901 5901 5901 5901 5899 5900 5900 5900 5900 5900 5899 5899 5899 5899 5899 5897 5893 5891 5887 5884 5882 5880 5874 5867 5863 5859 5855 5850 5846 5841 5838
5903 5904 5904 5905 5906 5905 5904 5904 5903 5905 5908 5907 5903 5900 5900 5902 5904 5902 5900 5901 5901 5902 5902 5900 5899 5899 5898 5897 5896 5894 5895 5893 5892 5893 5890 5886 5884 5881 5878 5876 5872 5867 5863 5858 5853 5846 5841 5836 5832
5903 5904 5903 5905 5903 5903 5903 5902 5900 5901 5904 5906 5905 5900 5899 5899 5903 5902 5901 5901 5901 5901 5901 5901 5900 5900 5898 5897 5896 5894 5892 5892 5892 5889 5887 5884 5881 5878 5873 5870 5867 5863 5859 5854 5849 5842 5836 5830 5826
5900 5899 5898 5900 5904 5902 5902 5901 5899 5899 5900 5902 5901 5900 5898 5897 5897 5901 5901 5902 5901 5900 5900 5900 5899 5898 5897 5896 5895 5894 5893 5890 5888 5889 5885 5882 5879 5875 5869 5866 5861 5857 5853 5848 5842 5836 5830 5824 5819
5896 5894 5895 5898 5902 5900 5899 5898 5898 5899 5900 5899 5900 5899 5898 5895 5894 5896 5897 5898 5900 5900 5899 5898 5899 5897 5896 5895 5893 5891 5890 5888 5885 5884 5881 5877 5873 5869 5864 5861 5856 5849 5845 5841 5835 5829 5822 5815 5811
5892 5891 5893 5896 5897 5897 5897 5895 5895 5896 5895 5895 5896 5896 5898 5894 5893 5892 5891 5893 5896 5898 5897 5896 5894 5896 5894 5892 5890 5889 5886 5886 5883 5880 5875 5871 5868 5865 5859 5855 5850 5844 5839 5833 5828 5821 5816 5809 5802
5889 5888 5890 5892 5893 5892 5891 5891 5894 5893 5893 5893 5892 5892 5892 5894 5892 5890 5888 5888 5891 5893 5893 5893 5892 5889 5891 5890 5887 5885 5883 5881 5879 5876 5870 5866 5862 5859 5854 5848 5844 5838 5833 5827 5820 5814 5808 5801 5794
5886 5886 5889 5890 5890 5888 5886 5886 5888 5887 5887 5889 5888 5887 5887 5888 5888 5887 5886 5885 5886 5888 5888 5889 5889 5887 5886 5885 5882 5880 5877 5874 5873 5871 5867 5861 5857 5852 5848 5842 5837 5832 5826 5819 5812 5805 5799 5793 5784
5882 5882 5883 5883 5883 5883 5884 5881 5885 5883 5883 5885 5884 5882 5883 5884 5884 5884 5884 5883 5883 5883 5882 5883 5884 5884 5880 5878 5877 5875 5872 5869 5868 5865 5860 5857 5851 5847 5842 5837 5833 5826 5819 5812 5804 5797 5790 5784 5776
5879 5879 5879 5879 5880 5881 5884 5880 5881 5881 5881 5880 5880 5879 5881 5877 5878 5880 5882 5882 5881 5879 5879 5880 5878 5877 5876 5872 5870 5868 5864 5861 5861 5856 5853 5850 5845 5841 5837 5832 5826 5819 5812 5804 5797 5789 5781 5773 5766
5875 5875 5877 5877 5877 5881 5880 5878 5878 5880 5880 5878 5872 5875 5875 5872 5872 5874 5877 5878 5878 5876 5874 5873 5873 5871 5869 5867 5864 5863 5860 5856 5855 5851 5847 5845 5841 5836 5831 5824 5818 5811 5803 5795 5787 5780 5772 5764 5756
5873 5872 5873 5875 5873 5875 5874 5875 5877 5878 5881 5879 5874 5875 5872 5870 5870 5870 5872 5876 5876 5873 5872 5870 5868 5866 5863 5861 5858 5856 5853 5851 5847 5845 5842 5840 5835 5829 5822 5815 5810 5803 5796 5787 5779 5771 5762 5754 5746
5870 5869 5870 5870 5871 5871 5873 5875 5873 5874 5877 5877 5876 5874 5871 5868 5864 5861 5861 5862 5864 5863 5862 5861 5860 5858 5855 5853 5851 5849 5846 5843 5839 5836 5834 5832 5827 5820 5816 5810 5803 5795 5787 5778 5770 5762 5753 5744 5735
5868 5869 5869 5866 5867 5867 5871 5873 5872 5867 5866 5867 5867 5867 5868 5866 5865 5863 5860 5860 5857 5853 5854 5852 5850 5848 5846 5845 5843 5841 5839 5837 5833 5830 5827 5823 5818 5813 5804 5799 5793 5786 5777 5769 5761 5752 5743 5734 5726
5864 5866 5866 5866 5864 5864 5866 5865 5865 5865 5862 5862 5861 5855 5853 5858 5858 5857 5856 5854 5852 5850 5849 5846 5843 5841 5839 5837 5835 5834 5833 5830 5827 5823 5820 5815 5810 5805 5799 5792 5785 5778 5769 5760 5752 5744 5734 5725 5716
5862 5861 5862 5862 5863 5860 5860 5863 5863 5861 5860 5856 5854 5855 5851 5847 5850 5849 5848 5848 5846 5844 5842 5839 5837 5834 5833 5832 5830 5828 5827 5824 5820 5817 5814 5809 5803 5797 5791 5784 5776 5768 5760 5751 5743 5734 5724 5715 5705
5857 5858 5859 5858 5857 5856 5854 5856 5860 5856 5856 5851 5851 5849 5847 5849 5847 5842 5838 5837 5839 5839 5836 5834 5833 5829 5827 5826 5824 5822 5821 5817 5814 5811 5807 5802 5796 5789 5783 5775 5768 5759 5750 5741 5733 5722 5712 5703 5693